Location: Santa Cristina
(46.5667°N, 11.7167°E)
Time: 03:57:24
(UTC+00:00)

ALOS - Pass Details

Date: 21 April 2021
Orbit: 682 x 685 km, 97.9° (Epoch: 10 May)

Event Time Altitude Azimuth Distance (km) Brightness Sun altitude
Rises 02:54:17 0° 20° (NNE) 3,058 6.6 -13.3°
Reaches altitude 10° 02:56:42 10° 29° (NNE) 2,137 5.9 -13.0°
Maximum altitude 03:01:01 36° 97° (E) 1,079 3.8 -12.3°
Drops below altitude 10° 03:05:17 10° 164° (SSE) 2,121 4.6 -11.7°
Sets 03:07:40 0° 173° (S) 3,031 5.4 -11.4°
